KM4NDI Weather Reports


Display with metric or nautical units.
time (UTC)temp
F
wind
direction
speed
MPH
gust
MPH
rain 1hr
in
rain 24hr
in
rain mn
in
humidity
%
barometer
mb
20260904221528 98 102 1.0 4.0 0.00 0.00 0.00 43 1014.6
20260904220525 96 0.0 0.0 0.00 0.00 0.00 45 1014.7
20260904215516 98 0.0 0.0 0.00 0.00 0.00 43 1014.7
20260904214519 98 0.0 0.0 0.00 0.00 0.00 42 1014.8
20260904213617 97 0.0 0.0 0.00 0.00 0.00 45 1014.7
20260904212526 98 0.0 0.0 0.00 0.00 0.00 41 1014.8
20260904211529 99 0.0 0.0 0.00 0.00 0.00 39 1014.8
20260904210532 98 98 1.0 5.0 0.00 0.00 0.00 44 1014.9
20260904205517 99 0.0 0.0 0.00 0.00 0.00 41 1015.0
20260904204641 98 0.0 0.0 0.00 0.00 0.00 45 1015.1
20260904203523 99 0.0 0.0 0.00 0.00 0.00 42 1015.2
20260904202527 99 142 2.0 4.0 0.00 0.00 0.00 44 1015.3
20260904201530 99 190 1.0 5.0 0.00 0.00 0.00 41 1015.5
20260904200515 98 126 2.0 4.0 0.00 0.00 0.00 44 1015.6
20260904195518 98 0.0 0.0 0.00 0.00 0.00 48 1015.7
20260904194521 98 0.0 0.0 0.00 0.00 0.00 45 1016.0
20260904193524 98 0.0 0.0 0.00 0.00 0.00 45 1016.2
20260904192527 99 80 1.0 5.0 0.00 0.00 0.00 42 1016.4
20260904191531 98 173 1.0 5.0 0.00 0.00 0.00 43 1016.5
20260904190516 95 0.0 0.0 0.00 0.00 0.00 51 1016.7
20260904185519 96 0.0 0.0 0.00 0.00 0.00 48 1016.8
20260904184542 99 239 1.0 3.0 0.00 0.00 0.00 44 1016.8
20260904183525 99 79 2.0 4.0 0.00 0.00 0.00 42 1017.1
20260904182522 98 103 4.0 5.0 0.00 0.00 0.00 44 1017.3
20260904181519 96 130 1.0 4.0 0.00 0.00 0.00 50 1017.3
20260904180516 97 113 0.0 1.0 0.00 0.00 0.00 54 1017.4
20260904175519 95 119 0.0 3.0 0.00 0.00 0.00 57 1017.6
20260904174523 93 0.0 0.0 0.00 0.00 0.00 55 1017.6
20260904173526 94 0.0 0.0 0.00 0.00 0.00 54 1017.9
20260904172529 93 0.0 0.0 0.00 0.00 0.00 57 1018.0
20260904171552 95 0.0 0.0 0.00 0.00 0.00 51 1018.2
20260904170537 94 0.0 0.0 0.00 0.00 0.00 56 1018.2
20260904165520 95 0.0 0.0 0.00 0.00 0.00 49 1018.2
20260904164543 94 0.0 0.0 0.00 0.00 0.00 52 1018.4
20260904163527 94 0.0 0.0 0.00 0.00 0.00 54 1018.5
20260904162550 96 0.0 0.0 0.00 0.00 0.00 51 1018.5
20260904161535 94 0.0 2.0 0.00 0.00 0.00 54 1018.6
20260904160538 95 0.0 0.0 0.00 0.00 0.00 53 1018.7
20260904155521 94 0.0 0.0 0.00 0.00 0.00 56 1018.7
20260904154544 93 0.0 0.0 0.00 0.00 0.00 58 1018.7
20260904153527 92 0.0 0.0 0.00 0.00 0.00 56 1018.7
20260904152530 92 0.0 0.0 0.00 0.00 0.00 55 1018.7
20260904151516 91 0.0 0.0 0.00 0.00 0.00 55 1018.6
20260904150518 90 0.0 0.0 0.00 0.00 0.00 63 1018.5
20260904145522 90 0.0 0.0 0.00 0.00 0.00 63 1018.4
20260904144519 90 0.0 0.0 0.00 0.00 0.00 62 1018.3
20260904143556 89 180 0.0 2.0 0.00 0.00 0.00 64 1018.2
20260904142531 87 0.0 0.0 0.00 0.00 0.00 72 1018.3
20260904141516 85 0.0 0.0 0.00 0.00 0.00 77 1018.3
20260904140519 84 0.0 0.0 0.00 0.00 0.00 78 1018.3
20260904135522 81 0.0 0.0 0.00 0.00 0.00 87 1018.3
20260904134525 79 0.0 0.0 0.00 0.00 0.00 92 1018.4
20260904133528 78 0.0 0.0 0.00 0.00 0.00 96 1018.5
20260904132532 76 0.0 0.0 0.00 0.00 0.00 98 1018.4
20260904131517 76 0.0 0.0 0.00 0.00 0.00 99 1018.4
20260904130520 74 0.0 0.0 0.00 0.00 0.00 99 1018.3
20260904125523 74 0.0 0.0 0.00 0.00 0.00 99 1018.2
20260904124546 73 0.0 0.0 0.00 0.00 0.00 99 1018.2
20260904123549 72 0.0 0.0 0.00 0.00 0.00 99 1017.9
20260904122552 72 0.0 0.0 0.00 0.00 0.00 99 1017.9
20260904121517 71 0.0 0.0 0.00 0.00 0.00 99 1017.8
20260904120520 71 0.0 0.0 0.00 0.00 0.00 99 1017.6
20260904115543 71 0.0 0.0 0.00 0.00 0.00 99 1017.5
20260904114527 71 0.0 0.0 0.00 0.00 0.00 99 1017.5
20260904113524 71 0.0 0.0 0.00 0.00 0.00 99 1017.4
20260904112515 71 0.0 0.0 0.00 0.00 0.00 99 1017.3
20260904111518 71 0.0 0.0 0.00 0.00 0.00 99 1017.2
20260904110516 71 0.0 0.0 0.00 0.00 0.00 99 1017.1
20260904105524 71 0.0 0.0 0.00 0.00 0.00 99 1017.1
20260904104547 71 0.0 0.0 0.00 0.00 0.00 99 1017.1
20260904103531 71 0.0 0.0 0.00 0.00 0.00 99 1016.9
20260904102516 71 0.0 0.0 0.00 0.00 0.00 99 1016.8
20260904101539 72 0.0 0.0 0.00 0.00 0.00 99 1016.7
20260904100542 71 0.0 0.0 0.00 0.00 0.00 99 1016.7
20260904095526 72 0.0 0.0 0.00 0.00 0.00 99 1016.6
20260904094549 72 0.0 0.0 0.00 0.00 0.00 99 1016.6
20260904093532 72 0.0 0.0 0.00 0.00 0.00 99 1016.6
20260904092517 72 0.0 0.0 0.00 0.00 0.00 99 1016.6
20260904091540 72 0.0 0.0 0.00 0.00 0.00 99 1016.7
20260904090523 72 0.0 0.0 0.00 0.00 0.00 99 1016.7
20260904085526 72 0.0 0.0 0.00 0.00 0.00 99 1016.6
20260904084530 72 0.0 0.0 0.00 0.00 0.00 99 1016.6
20260904083532 73 0.0 0.0 0.00 0.00 0.00 99 1016.6
20260904082518 73 0.0 0.0 0.00 0.00 0.00 99 1016.6
20260904081521 73 0.0 0.0 0.00 0.00 0.00 99 1016.7
20260904080524 73 0.0 0.0 0.00 0.00 0.00 99 1016.7
20260904075521 73 0.0 0.0 0.00 0.00 0.00 99 1016.7
20260904074538 73 0.0 0.0 0.00 0.00 0.00 99 1016.7
20260904073516 73 0.0 0.0 0.00 0.00 0.00 99 1016.8
20260904072539 73 0.0 0.0 0.00 0.00 0.00 99 1016.7
20260904071522 73 0.0 0.0 0.00 0.00 0.00 99 1016.7
20260904070525 73 0.0 0.0 0.00 0.00 0.00 99 1016.7
20260904065549 73 0.0 0.0 0.00 0.00 0.00 99 1016.7
20260904064532 73 0.0 0.0 0.00 0.00 0.00 99 1016.9
20260904063517 73 0.0 0.0 0.00 0.00 0.00 99 1016.8
20260904062520 73 0.0 0.0 0.00 0.00 0.00 99 1016.8
20260904061523 74 0.0 0.0 0.00 0.00 0.00 99 1016.8
20260904060526 74 0.0 0.0 0.00 0.00 0.00 99 1016.8
20260904055529 74 0.0 0.0 0.00 0.00 0.00 99 1016.8
20260904054533 74 0.0 0.0 0.00 0.00 0.00 99 1016.9
20260904053518 74 0.0 0.0 0.00 0.00 0.00 99 1016.9
20260904052521 74 0.0 0.0 0.00 0.00 0.00 99 1016.9
20260904051524 74 0.0 0.0 0.00 0.00 0.00 98 1016.9
20260904050527 74 0.0 0.0 0.00 0.00 0.00 98 1016.8
20260904045530 74 0.0 0.0 0.00 0.00 0.00 98 1016.8
20260904044515 74 0.0 0.0 0.00 0.00 0.00 98 1016.9
20260904043518 75 0.0 0.0 0.00 0.00 0.00 98 1016.9
20260904042521 75 0.0 0.0 0.00 0.00 0.00 97 1017.0
20260904041518 75 0.0 0.0 0.00 0.00 0.00 97 1017.0
20260904040615 75 0.0 0.0 0.00 0.00 0.00 96 1017.1
20260904035531 75 0.0 0.0 0.00 0.00 0.00 96 1017.1
20260904034516 75 0.0 0.0 0.00 0.00 0.00 96 1017.2
20260904033519 76 0.0 0.0 0.00 0.00 0.00 96 1017.2
20260904032522 76 0.0 0.0 0.00 0.00 0.00 95 1017.3
20260904031525 76 0.0 0.0 0.00 0.00 0.00 95 1017.5
20260904030529 76 0.0 0.0 0.00 0.00 0.00 95 1017.5
20260904025552 77 0.0 0.0 0.00 0.00 0.00 94 1017.5
20260904024517 77 0.0 0.0 0.00 0.00 0.00 94 1017.4
20260904023520 77 0.0 0.0 0.00 0.00 0.00 93 1017.4
20260904022543 77 0.0 0.0 0.00 0.00 0.00 93 1017.3
20260904021526 78 0.0 0.0 0.00 0.00 0.00 93 1017.2
20260904020529 78 0.0 0.0 0.00 0.00 0.00 92 1017.1
20260904015532 78 0.0 0.0 0.00 0.00 0.00 90 1016.9
20260904014518 79 0.0 0.0 0.00 0.00 0.00 90 1016.9
20260904013521 79 0.0 0.0 0.00 0.00 0.00 88 1016.8
20260904012524 80 0.0 0.0 0.00 0.00 0.00 87 1016.6
20260904011527 80 0.0 0.0 0.00 0.00 0.00 86 1016.4
20260904010544 81 0.0 0.0 0.00 0.00 0.00 85 1016.4
20260904005515 81 0.0 0.0 0.00 0.00 0.00 83 1016.4
20260904004520 82 0.0 0.0 0.00 0.00 0.00 81 1016.3
20260904003515 83 0.0 0.0 0.00 0.00 0.00 79 1016.3
20260904002525 84 0.0 0.0 0.00 0.00 0.00 77 1016.2
20260904001528 85 0.0 0.0 0.00 0.00 0.00 76 1016.1
20260904000531 86 0.0 0.0 0.00 0.00 0.00 71 1016.1
20260903235536 87 0.0 0.0 0.00 0.00 0.00 70 1016.0
20260903234519 88 0.0 0.0 0.00 0.00 0.00 67 1016.1
20260903233522 89 0.0 0.0 0.00 0.00 0.00 67 1016.0
20260903232525 89 0.0 0.0 0.00 0.00 0.00 65 1015.9
20260903231549 90 0.0 0.0 0.00 0.00 0.00 65 1015.9
20260903230532 90 0.0 0.0 0.00 0.00 0.00 67 1015.8
20260903225517 91 0.0 0.0 0.00 0.00 0.00 64 1015.8
20260903224520 90 0.0 0.0 0.00 0.00 0.00 68 1015.8
20260903223523 92 0.0 0.0 0.00 0.00 0.00 65 1015.8
20260903222526 93 0.0 0.0 0.00 0.00 0.00 61 1015.5